Location: *
(44.3526°S, 44.9014°W)
Time: 23:02:25
(UTC+00:00)

Cosmos 2251 Rocket - Pass Details

Date: 13 May 2025
Orbit: 761 x 788 km, 74.0° (Epoch: 14 June)

Event Time Altitude Azimuth Distance (km) Brightness Sun altitude
Rises 20:27:07 0° 339° (NNW) 3,272 7.4 -7.9°
Reaches altitude 10° 20:29:30 10° 338° (NNW) 2,348 6.6 -8.3°
Maximum altitude 20:34:52 83° 249° (WSW) 802 3.7 -9.2°
Drops below altitude 10° 20:40:15 10° 160° (SSE) 2,360 5.7 -10.2°
Sets 20:42:39 0° 159° (SSE) 3,290 6.4 -10.6°
